www.pogodaiklimat.ru

Погода и климат >> Архив погоды >> Россия >> Краснодарский край >> Сочи


АРХИВ ПОГОДЫ в Сочи

Время (UTC), дата Ветер
(напр.,м/с)
 
Видим.   Явления Облачность Т
(С)
Тd
(С)
f
(%)
Тe
(С)
Тes
(С)
Комфортность P
(гПа)
Po
(гПа)
Тmin
(С)
Tmax
(С)
R
(мм)
R24
(мм)
S
(см)
18 16.08 В 2 15 км гроза без осадков {ливн. осадки} 10/8 600 м
[Cb cap Ac trans]
+23.2 +23.2 100 +33 +33 очень
душно
1006.8 991.8
21 16.08 В 3 20 км {гроза} 10/10 600 м
[Cb cap]
+24.0 +23.5 97 +32 +32 очень
душно
1007.4 992.4
00 17.08 В 3 20 км {гроза, ливн. осадки} 10/10 600 м
[Sc]
+24.1 +23.1 94 +32 +32 очень
душно
1007.9 992.9
03 17.08 В 3 20 км 10/10 1000 м
[Sc]
+24.1 +22.4 90 +31 +31 очень
душно
1007.3 992.3 +23.0 2
06 17.08 В 2
{11}
1000 м гроза, ливневой дождь 10/10 200 м
[Cb cap]
+21.0 +21.0 100 +27 +27 душно 1009.0 993.8 +20.8
09 17.08 В 1 20 км {гроза, ливн. осадки} 9/9 1000 м
[Cb cap]
+21.9 +21.9 100 +29 +31 очень
душно
1009.4 994.3
12 17.08 СЗ 2 20 км {гроза, ливн. осадки} 10/10 600 м
[Cb cap]
+23.7 +23.5 99 +32 +32 очень
душно
1009.6 994.6
15 17.08 СЗ 1 20 км гроза без осадков 8/8 1000 м
[Cb cap Ac cuf]
+23.9 +23.1 95 +32 +32 очень
душно
1009.2 994.2 +25.1 105
18 17.08 В 1 20 км {гроза, ливн. осадки} 8/8 1000 м
[Cb cap]
+22.6 +22.6 100 +31 +31 очень
душно
1009.5 994.4
21 17.08 В 2 20 км гроза, ливневой дождь 10/10 1000 м
[Cb cap]
+21.8 +21.8 100 +28 +28 душно 1008.7 993.6
00 18.08 В 1 10 км гроза, ливневой дождь 10/10 1000 м
[Cb cap]
+21.1 +21.1 100 +26 +26 душно 1007.7 992.6
03 18.08 В 1 20 км гроза, ливневой дождь 10/10 1000 м
[Cb cap]
+20.7 +20.7 100 +27 +27 душно 1007.8 992.6 +20.6 24
06 18.08 В 2 15 км слаб. ливневой дождь {гроза} 10/10 600 м
[Cb cap]
+20.8 +20.8 100 +27 +27 душно 1007.6 992.4 +20.4
09 18.08 В 1 20 км {ливн. осадки} 10/6 1000 м
[Sc Ac trans Ci fib]
+25.7 +24.5 93 +36 +40 очень
душно
1007.4 992.5
12 18.08 ЮЗ 1 20 км 10/0
[Ac trans]
+25.6 +22.7 84 +34 +39 очень
душно
1008.9 994.0
15 18.08 ЮВ 1 20 км 10/0
[Ac trans Ci fib]
+25.5 +21.2 77 +32 +33 очень
душно
1009.8 994.9 +28.2 6
18 18.08 В 1 20 км 10/0
[Ac trans Ci fib]
+23.2 +23.2 100 +33 +33 очень
душно
1012.1 997.0
21 18.08 В 1 20 км 10/0
[Ac trans Ci fib]
+23.0 +23.0 100 +32 +32 очень
душно
1012.2 997.1
00 19.08 СВ 1 20 км 10/8 600 м
[Sc Ac As]
+23.1 +21.6 91 +31 +31 очень
душно
1012.3 997.2
03 19.08 В 1 20 км 10/4 600 м
[Cb cap Ac trans Ci fib]
+22.6 +21.4 93 +30 +30 очень
душно
1013.2 998.1 +22.1
06 19.08 ЮВ 1 20 км 8/5 600 м
[Cb cap Ac trans]
+25.4 +22.7 85 +33 +36 очень
душно
1013.8 998.8
09 19.08 Ю 2 20 км 4/4 1000 м
[Cb cap]
+27.0 +23.5 81 +37 +46 очень
душно
1013.9 999.0
12 19.08 З 3 20 км 6/6 1000 м
[Cb cap]
+27.4 +24.3 83 +38 +42 очень
душно
1013.6 998.7
15 19.08 СЗ 2 20 км 3/3 1000 м
[Cu med, cong]
+26.2 +22.3 79 +34 +35 очень
душно
1013.3 998.3 +28.3
18 19.08 штиль 0 20 км 10/10 1000 м
[Sc]
+24.6 +22.9 90 +33 +33 очень
душно
1015.0 999.9
21 19.08 штиль 0 20 км 10/10 1000 м
[Sc]
+23.5 +23.2 98 +31 +31 очень
душно
1015.3 1000.2
00 20.08 В 1 20 км 10/6 1000 м
[Cu Sc Ac As Cc]
+22.7 +22.7 100 +31 +31 очень
душно
1014.8 999.7
03 20.08 В 1 20 км 8/4 1000 м
[Cu Sc Ac As]
+22.6 +22.6 100 +31 +31 очень
душно
1015.2 1000.0 +22.1
06 20.08 ЮЗ 1 20 км 9/8 600 м
[Cu Sc Ac cast]
+25.5 +24.6 95 +36 +37 очень
душно
1015.6 1000.6
09 20.08 ЮЗ 2 20 км 6/6 1000 м
[Cu Sc]
+27.6 +24.3 82 +39 +45 очень
душно
1015.1 1000.2
12 20.08 З 3 20 км 9/9 600 м
[Cu Sc]
+26.8 +24.1 85 +37 +38 очень
душно
1014.5 999.6
15 20.08 З 1 20 км 10/10 600 м
[Cu Sc]
+25.6 +24.2 92 +35 +35 очень
душно
1015.0 1000.0 +28.2
18 20.08 З 2 20 км {ливн. осадки} 10/10 1000 м
[Cb cap]
+24.6 +22.9 90 +33 +33 очень
душно
1015.6 1000.5
21 20.08 В 1 20 км 8/0
[Ci sp]
+23.5 +23.5 100 +32 +32 очень
душно
1015.4 1000.3
00 21.08 В 1 20 км слаб. ливневой дождь 6/5 1500 м
[Cb cap Ci fib]
+23.6 +23.4 99 +32 +32 очень
душно
1014.2 999.1
03 21.08 ЮВ 1 20 км {ливн. осадки} 4/3 1500 м
[Cb cap Ac cast]
+23.6 +22.8 95 +31 +31 очень
душно
1014.1 999.0 +22.6 0.0
06 21.08 Ю 1 20 км {ливн. осадки} 8/3 1000 м
[Cu med, cong Ac trans Ci sp]
+25.8 +23.1 85 +34 +38 очень
душно
1013.5 998.5 +22.5
09 21.08 З 2 20 км 4/3 1000 м
[Cu med, cong Ac trans Ci sp]
+27.9 +23.7 78 +38 +48 очень
душно
1012.0 997.2
12 21.08 СЗ 4 20 км 4/0
[Ac trans Ci sp]
+27.6 +24.0 81 +38 +44 очень
душно
1010.4 995.6
15 21.08 СЗ 4 20 км 10/6 1000 м
[Cu med, cong Ac trans Ci sp]
+25.7 +25.4 98 +37 +37 очень
душно
1009.1 994.2 +28.9
18 21.08 СВ 1 20 км гроза без осадков 10/8 600 м
[Cb cap Ac trans Ci fib]
+25.2 +25.2 100 +36 +36 очень
душно
1009.2 994.3
21 21.08 ЮВ 2 2000 м гроза, ливневой дождь 10/10 600 м
[Cb cap]
+23.7 +23.7 100 +32 +32 очень
душно
1010.0 995.0
00 22.08 С 1 7000 м гроза, ливневой дождь 10/9 600 м
[Cb cap Ac trans Ci fib]
+24.1 +24.1 100 +33 +33 очень
душно
1010.8 995.8
03 22.08 В 1 3000 м в посл. час гроза {ливн. осадки} 8/3 1000 м
[Cu Sc Ac trans Cs]
+23.3 +23.3 100 +33 +33 очень
душно
1010.1 995.1 +23.3 11
06 22.08 штиль 0 20 км {гроза, ливн. осадки} 9/9 1000 м
[Sc]
+26.6 +25.0 91 +38 +39 очень
душно
1010.7 995.8 +23.2
09 22.08 З 2 20 км 10/3 1000 м
[Cu Sc Ac cast Ci fib]
+28.7 +23.8 75 +40 +45 очень
душно
1009.8 995.0
12 22.08 З 3 20 км 10/9 1000 м
[Cu med, cong Ci fib]
+27.4 +25.0 87 +39 +40 очень
душно
1010.6 995.8
15 22.08 СЗ 2 20 км 10/10 1000 м
[Cu Sc]
+25.6 +25.1 97 +37 +37 очень
душно
1010.1 995.2 +29.6
18 22.08 СЗ 1 20 км 10/3 1000 м
[Cu Sc Ac As Ci sp]
+24.9 +24.9 100 +35 +35 очень
душно
1011.6 996.6
21 22.08 В 1 20 км гроза без осадков 10/10 1000 м
[Cb cap]
+24.2 +24.2 100 +33 +33 очень
душно
1011.1 996.1
00 23.08 В 1 11 км гроза, ливневой дождь 10/10 1000 м
[Cb cap]
+23.4 +23.4 100 +33 +33 очень
душно
1010.8 995.8
03 23.08 В 1 10 км в посл. час ливневой дождь {гроза} 10/8 1000 м
[Cb cap Cc]
+22.8 +22.8 100 +31 +31 очень
душно
1011.0 995.9 +22.8 0.9
06 23.08 Ю 1 20 км {гроза, ливн. осадки} 10/8 1000 м
[Sc Ac cast Cs]
+25.8 +25.3 97 +37 +38 очень
душно
1012.2 997.3
09 23.08 ЮЗ 2 20 км 10/1 1000 м
[Cu med, cong Cs]
+27.0 +23.7 82 +37 +48 очень
душно
1012.0 997.1
12 23.08 Ю 1 20 км 10/8 600 м
[Cu Sc Cs]
+26.8 +24.3 86 +37 +39 очень
душно
1012.2 997.3
15 23.08 СЗ 2 20 км 10/1 600 м
[Sc Ac cast Cs]
+26.4 +23.9 86 +36 +37 очень
душно
1011.7 996.8 +27.8

 

Местоположение метеостанции Сочи (Краснодарский край, Россия): широта 43.58 долгота 39.77 высота над уровнем моря 132 м.

В архиве по умолчанию представлена погода в Сочи за последнюю неделю. Архивные данные за месяц целиком и за предыдущие месяцы, начиная с января 2011 года, Вы можете получить, выбрав интересующий диапазон дат из раскрывающегося списка и нажав кнопку "Ввод!".


*Определитесь, кто Вы:
робот инопланетянин человек

Внимание! Время в таблицах - всемирное. Для получения местного времени необходимо прибавить поправку, которая равна 3 ч.

Смотрите также архив погоды в соседних городах и на ближайших метеорологических станциях:

Погода в Сочи аэропорт (Адлере) (Краснодарский край, Россия) (20 км)
Погода в Кепше (Краснодарский край, Россия) (23 км)
Погода в Имеретинке (Краснодарский край, Россия) (25 км)
Погода в Солох Ауле (Краснодарский край, Россия) (27 км)
Погода в Кичмае (Краснодарский край, Россия) (35 км)
Погода в Красной Поляне (Краснодарский край, Россия) (36 км)
Погода в Горная Карусель 1500 (Краснодарский край, Россия) (43 км)
Погода в Горная Карусель 1000 (Краснодарский край, Россия) (43 км)
Погода на Кордоне Лаура (Краснодарский край, Россия) (45 км)
Погода в Лазаревском (Краснодарский край, Россия) (50 км)

Пояснения к столбцам:

Ветер - указаны скорость ветра в м/с - средняя за 10 мин, порывы в срок и между сроками (в фигурных скобках) и направление, откуда дует ветер: С - северный, СВ - северо-восточный, В - восточный, ЮВ - юго-восточный, Ю - южный, ЮЗ - юго-западный, З - западный, СЗ - северо-западный.
Видимость - горизонтальная дальность видимости в метрах или километрах. При видимости от 1 до 10 км при отсутствии осадков обычно наблюдается дымка, при ухудшении видимости до 1 км и менее - туман. В сухую погоду видимость может ухудшаться дымом, пылью или мглою.
Явления - указаны атмосферные явления, наблюдавшиеся в срок или в последний час перед сроком; фигурными скобками обозначены явления, наблюдавшиеся между сроками (за 1-3 часа до срока); квадратными скобками обозначены град или гололедные отложения с указанием их диаметра в мм.
Облачность - указаны через наклонную черту общая и нижняя облачность в баллах и высота нижней границы облаков в метрах; квадратными скобками обозначены формы облаков: Ci - перистые, Cs - перисто-слоистые, Cc - перисто-кучевые, Ac - высококучевые, As - высокослоистые, Sc - слоисто-кучевые, Ns - слоисто-дождевые, Cu - кучевые, Cb - кучево-дождевые. Подробнее классификацию облаков см. в Атласе облаков (PDF).
T - Температура воздуха - температура, измеренная на высоте 2 м над землей.
Td - Температура точки росы - температура, при понижении до которой содержащийся в воздухе водяной пар достигнет насыщения.
f - Относительная влажность воздуха - влажноcть воздуха, измеренная на высоте 2 м над землей.
Te - Эффективная температура - температура, которую ощущает одетый по сезону человек в тени. Характеристика душности погоды. При расчете учитывается влияние влажности воздуха и скорости ветра на теплоощущения человека.
Tes - Эффективная температура на солнце - температура, которую ощущает человек, с поправкой на солнечный нагрев. Характеристика знойности погоды. Зависит от высоты солнца над горизонтом, облачности и скорости ветра. Ночью, в пасмурную погоду, а также при ветре 12 м/с и более поправка равна нулю.
P - Атмосферное давление - приведенное к уровню моря атмосферное давление.
Po - Атмосферное давление - измеренное на уровне метеостанции атмосферное давление.
Tmin - Минимальная температура - минимум температуры воздуха на высоте 2 м над землей.
Tmax - Максимальная температура - максимум температуры воздуха на высоте 2 м над землей.
R - Количество осадков - Количество выпавших осадков за период времени, мм. При наведении курсора мыши на число - период времени, за который выпало указанное количество осадков.
R24 - Количество осадков - Количество выпавших осадков за 24 часа, мм.
S - Снежный покров - Высота снежного покрова, см. При наведении курсора мыши на число - состояние снежного покрова и степень покрытия местности в баллах.